Regional Weather Roundup
Issued by NWS

Home | Current Version | Previous Version | Text Only | Print | Product List | Glossary Off
Versions: 1 2 3 4 5 6 7 8 9 10 11 12 13 14 15 16 17 18 19 20 21 22 23 24 25 26 27 28 29 30 31 32 33 34 35 36 37 38 39 40 41 42 43 44 45 46 47 48 49 50

631
ASUS43 KIND 260159
RWRIN

WEATHER ROUNDUP FOR INDIANA
NATIONAL WEATHER SERVICE INDIANAPOLIS IN
1000 PM EDT TUE APR 25 2017

NOTE: "FAIR" INDICATES FEW OR NO CLOUDS BELOW 12,000 FEET WITH NO
SIGNIFICANT WEATHER AND/OR OBSTRUCTIONS TO VISIBILITY.

* - STATION DOES NOT REPORT WEATHER SUCH AS PRECIPITATION OR FOG.

+ - STATION NOT QUALITY CONTROLLED BY THE NATIONAL WEATHER SERVICE.
    USE DATA WITH CAUTION...ESPECIALLY DEWPOINT AND RELATIVE
    HUMIDITY OBSERVATIONS.

INZ001>003-010>013-019-020-260300-
NORTHWEST INDIANA

CITY           SKY/WX    TMP DP  RH WIND       PRES   REMARKS
GARY /AIRPORT/ CLOUDY    73  48  40 SE9       29.57S
KNOX *+        CLEAR     66  32  28 S6        29.60R
MICHIGAN CITY+ PTCLDY    68  54  60 SE3       29.60R
MONTICELLO +   PTCLDY    69  53  57 SE3       29.59S
RENSSELAER +   CLOUDY    70  52  52 SE7       29.61R

$$

LMZ046-743>745-260300-
SOUTHERN LAKE MICHIGAN

STATION/POSITION TIME  TEMP    WIND        PRES    WAVE
                       AIR SEA DIR/SP/G            HT
                 (UTC) (F)     (DEG/KT/KT) (MB)    (FT)
BURNS HARBOR     0100   74     150/ 11/ 17 1002.0
MICHIGAN CITY    0130   71     130/  5/  7   N/A

$$

INZ004-005-014>016-021>024-260300-
NORTH CENTRAL INDIANA

CITY           SKY/WX    TMP DP  RH WIND       PRES   REMARKS
GOSHEN         MOCLDY    64  53  67 SE7       29.63R
SOUTH BEND     CLEAR     67  54  63 SE6       29.62R
WARSAW +       CLOUDY    64  54  68 CALM      29.63S

$$

INZ006>009-017-018-025>027-260300-
NORTHEAST INDIANA

CITY           SKY/WX    TMP DP  RH WIND       PRES   REMARKS
ANGOLA *+      CLEAR     66  55  68 E9        29.66R
AUBURN +       CLOUDY    68  52  56 SE3       29.66R
FORT WAYNE     MOCLDY    67  53  61 SE7       29.65R
HUNTINGTON +   CLOUDY    67  54  62 SE5       29.64R
KENDALLVILLE + PTCLDY    66  54  64 SE6       29.66R

$$

INZ028-029-035-036-043>045-051>053-260300-
WEST CENTRAL INDIANA

CITY           SKY/WX    TMP DP  RH WIND       PRES   REMARKS
CRAWFORDSVL +  PTCLDY    67  54  62 SE10      29.60S
GREENCASTLE +  PTCLDY    66  54  63 SE9       29.62R
LAFAYETTE      PTCLDY    67  55  65 SE3       29.59R
TERRE HAUTE    CLOUDY    71  54  54 S10       29.59R

$$

INZ030>032-037>040-046>048-054>057-064-065-260300-
CENTRAL INDIANA

CITY           SKY/WX    TMP DP  RH WIND       PRES   REMARKS
COLUMBUS       CLEAR     68  50  52 SE12      29.64F
FRANKFORT +    PTCLDY    68  55  64 SE9       29.63S
INDIANAPOLIS   PTCLDY    68  55  63 SE10      29.63R
-EAGLE CREEK   PTCLDY    70  54  56 SE10      29.62R
KOKOMO +       PTCLDY    66  56  70 SE9       29.64R
SHELBYVILLE    PTCLDY    70  54  56 S12       29.64S

$$

INZ033-034-041-042-049-050-058-059-260300-
EAST CENTRAL INDIANA

CITY           SKY/WX    TMP DP  RH WIND       PRES   REMARKS
MUNCIE         PTCLDY    70  54  56 S7        29.65S
RICHMOND +     CLOUDY    63  54  72 SE6       29.69S

$$

INZ060-061-067>069-081>083-085>088-260300-
SOUTHWEST INDIANA

CITY           SKY/WX    TMP DP  RH WIND       PRES   REMARKS
EVANSVILLE     PTCLDY    71  56  58 SE6       29.61S

$$

INZ062-063-066-070>080-084-089>092-260300-
SOUTH CENTRAL AND SOUTHEAST INDIANA

CITY           SKY/WX    TMP DP  RH WIND       PRES   REMARKS
BLOOMINGTON    PTCLDY    68  54  60 S8        29.63R
MADISON *+     CLEAR     66  54  63 SE6       29.69S
SEYMOUR +      PTCLDY    66  55  68 SE8       29.65S

$$





USA.gov is the U.S. government's official web portal to all federal, state and local government web resources and services.